Kankakee, IL

1:55 AM CDT on October 15, 2019 (GMT -0500)
Greater Kankakee

Weather History for KIKK - August, 2019

Change the Weather History Date:

Friday, August 2, 2019

  Actual Average Record
Temperature  
Mean Temperature 70 °F -  
Max Temperature 82 °F 84 °F 104 °F (1988)
Min Temperature 58 °F 62 °F 51 °F (1990)
Cooling Degree Days 5    
Growing Degree Days 20 (Base 50)    
Moisture  
Dew Point 58 °F    
Average Humidity 67    
Maximum Humidity 95    
Minimum Humidity 39    
Precipitation  
Precipitation 0.00 in - - ()
Sea Level Pressure  
Sea Level Pressure 30.14 in    
Wind  
Wind Speed 3 mph (ENE)    
Max Wind Speed 9 mph    
Max Gust Speed -    
Visibility 10 miles    
Events      
Averages and records for this station are not official NWS values.
T = Trace of Precipitation, MM = Missing Value Source: NWS Daily Summary

Daily Weather History Graph

Daily Weather History Graph

Search for Another Location

Airport or City:

Astronomy

Aug. 02, 2019 Rise Set
Actual Time 5:47 AM CDT 8:06 PM CDT
Civil Twilight 5:17 AM CDT 8:37 PM CDT
Nautical Twilight 4:38 AM CDT 9:15 PM CDT
Astronomical Twilight 3:56 AM CDT 9:57 PM CDT
Moon 7:26 AM CDT (8/2) 9:34 PM CDT (8/2)
Length of Visible Light 15h 20m
Length of Day
14h 18m
Waxing Crescent, 4% of the Moon is Illuminated
Aug 2
Waxing Crescent
Aug 7
First Quarter
Aug 15
Full
Aug 23
Last Quarter
Aug 30
New

Hourly Weather History & Observations

Time (CDT) Temp. Heat Index Dew Point Humidity Pressure Visibility Wind Dir Wind Speed Gust Speed Precip Events Conditions
12:15 AM 62.8 °F - 58.5 °F 86% 30.18 in 10.0 mi NNE 3.5 mph - N/A   Mostly Cloudy
12:35 AM 62.2 °F - 59.4 °F 90% 30.17 in 10.0 mi Calm Calm - N/A   Mostly Cloudy
12:55 AM 62.6 °F - 59.4 °F 89% 30.17 in 10.0 mi Calm Calm - N/A   Scattered Clouds
1:15 AM 62.6 °F - 59.2 °F 89% 30.17 in 10.0 mi ENE 3.5 mph - N/A   Clear
1:35 AM 62.1 °F - 59.0 °F 90% 30.17 in 10.0 mi Calm Calm - N/A   Clear
1:55 AM 62.4 °F - 58.6 °F 87% 30.17 in 10.0 mi Calm Calm - N/A   Clear
2:15 AM 61.7 °F - 58.1 °F 88% 30.17 in 10.0 mi NE 3.5 mph - N/A   Clear
2:35 AM 61.3 °F - 58.1 °F 89% 30.16 in 10.0 mi NE 4.6 mph - N/A   Clear
2:55 AM 60.8 °F - 57.6 °F 89% 30.16 in 10.0 mi Calm Calm - N/A   Clear
3:15 AM 60.8 °F - 57.6 °F 89% 30.16 in 10.0 mi Calm Calm - N/A   Clear
3:35 AM 60.3 °F - 57.9 °F 92% 30.16 in 10.0 mi Calm Calm - N/A   Clear
3:55 AM 59.9 °F - 57.2 °F 91% 30.16 in 10.0 mi Calm Calm - N/A   Clear
4:15 AM 59.2 °F - 56.8 °F 92% 30.16 in 10.0 mi Calm Calm - N/A   Clear
4:35 AM 59.9 °F - 57.4 °F 91% 30.16 in 10.0 mi Calm Calm - N/A   Clear
5:15 AM 58.8 °F - 57.0 °F 94% 30.16 in 10.0 mi Calm Calm - N/A   Clear
5:35 AM 58.6 °F - 57.2 °F 95% 30.16 in 10.0 mi Calm Calm - N/A   Clear
5:55 AM 58.1 °F - 56.3 °F 94% 30.16 in 10.0 mi Calm Calm - N/A   Clear
6:15 AM 58.1 °F - 56.7 °F 95% 30.16 in 7.0 mi Calm Calm - N/A   Scattered Clouds
6:35 AM 58.8 °F - 57.2 °F 94% 30.16 in 10.0 mi Calm Calm - N/A   Scattered Clouds
6:55 AM 60.8 °F - 58.5 °F 92% 30.16 in 10.0 mi Calm Calm - N/A   Clear
7:15 AM 62.6 °F - 59.0 °F 88% 30.16 in 10.0 mi East 3.5 mph - N/A   Clear
7:35 AM 64.4 °F - 58.8 °F 82% 30.17 in 10.0 mi East 3.5 mph - N/A   Clear
7:55 AM 66.6 °F - 59.0 °F 77% 30.17 in 10.0 mi East 3.5 mph - N/A   Clear
8:15 AM 68.5 °F - 59.4 °F 72% 30.17 in 10.0 mi East 3.5 mph - N/A   Clear
8:35 AM 70.3 °F - 59.2 °F 68% 30.17 in 10.0 mi ESE 4.6 mph - N/A   Clear
8:55 AM 72.0 °F - 59.5 °F 65% 30.17 in 10.0 mi ENE 4.6 mph - N/A   Clear
9:15 AM 73.8 °F - 59.5 °F 61% 30.17 in 10.0 mi ENE 4.6 mph - N/A   Clear
9:35 AM 75.2 °F - 59.5 °F 58% 30.17 in 10.0 mi East 4.6 mph - N/A   Clear
9:55 AM 76.3 °F - 59.4 °F 56% 30.17 in 10.0 mi East 4.6 mph - N/A   Clear
10:15 AM 77.2 °F - 58.1 °F 52% 30.17 in 10.0 mi ESE 4.6 mph - N/A   Clear
10:35 AM 78.6 °F - 56.5 °F 46% 30.18 in 10.0 mi Calm Calm - N/A   Clear
10:55 AM 79.0 °F - 56.3 °F 46% 30.18 in 10.0 mi ENE 6.9 mph - N/A   Clear
11:15 AM 79.3 °F - 56.8 °F 46% 30.18 in 10.0 mi NE 6.9 mph - N/A   Clear
11:35 AM 79.5 °F - 57.7 °F 47% 30.18 in 10.0 mi ENE 3.5 mph - N/A   Clear
11:55 AM 80.8 °F 81.2 °F 58.6 °F 47% 30.17 in 10.0 mi NNE 5.8 mph - N/A   Clear
12:15 PM 80.6 °F 81.0 °F 58.5 °F 47% 30.17 in 10.0 mi East 6.9 mph - N/A   Clear
12:35 PM 81.0 °F 81.2 °F 58.1 °F 46% 30.16 in 10.0 mi NE 9.2 mph - N/A   Clear
12:55 PM 80.8 °F 80.9 °F 57.0 °F 44% 30.16 in 10.0 mi East 8.1 mph - N/A   Clear
1:15 PM 81.3 °F 81.2 °F 56.7 °F 43% 30.15 in 10.0 mi NE 8.1 mph - N/A   Clear
1:35 PM 81.3 °F 81.1 °F 55.9 °F 42% 30.15 in 10.0 mi East 5.8 mph - N/A   Clear
1:55 PM 81.5 °F 81.3 °F 56.3 °F 42% 30.14 in 10.0 mi ESE 6.9 mph - N/A   Clear
2:15 PM 81.9 °F 81.4 °F 55.8 °F 41% 30.14 in 10.0 mi ENE 5.8 mph - N/A   Clear
2:35 PM 81.9 °F 81.2 °F 54.9 °F 39% 30.13 in 10.0 mi East 9.2 mph - N/A   Clear
2:55 PM 82.4 °F 81.7 °F 55.4 °F 39% 30.12 in 10.0 mi East 9.2 mph - N/A   Clear
3:35 PM 82.2 °F 81.5 °F 54.9 °F 39% 30.12 in 10.0 mi ENE 9.2 mph - N/A   Clear
3:55 PM 82.6 °F 82.0 °F 56.1 °F 40% 30.11 in 10.0 mi East 8.1 mph - N/A   Clear
4:15 PM 82.4 °F 82.2 °F 57.6 °F 43% 30.11 in 10.0 mi ENE 6.9 mph - N/A   Clear
4:35 PM 82.4 °F 82.3 °F 58.3 °F 44% 30.10 in 10.0 mi East 5.8 mph - N/A   Clear
4:55 PM 81.9 °F 81.7 °F 57.6 °F 43% 30.10 in 10.0 mi East 5.8 mph - N/A   Clear
5:15 PM 81.7 °F 81.3 °F 56.1 °F 41% 30.09 in 10.0 mi East 5.8 mph - N/A   Clear
5:35 PM 81.5 °F 81.4 °F 56.8 °F 43% 30.09 in 10.0 mi ESE 8.1 mph - N/A   Clear
5:55 PM 81.5 °F 81.5 °F 57.9 °F 44% 30.09 in 10.0 mi East 6.9 mph - N/A   Clear
6:15 PM 80.6 °F 81.0 °F 58.6 °F 47% 30.08 in 10.0 mi ESE 5.8 mph - N/A   Clear
6:35 PM 79.7 °F - 59.7 °F 50% 30.08 in 10.0 mi ESE 4.6 mph - N/A   Clear
6:55 PM 79.0 °F - 59.2 °F 51% 30.09 in 10.0 mi ESE 4.6 mph - N/A   Clear
7:15 PM 77.7 °F - 61.7 °F 58% 30.08 in 10.0 mi East 4.6 mph - N/A   Clear
7:35 PM 75.2 °F - 60.6 °F 60% 30.09 in 10.0 mi NE 4.6 mph - N/A   Clear
7:55 PM 73.2 °F - 60.1 °F 63% 30.09 in 10.0 mi NE 4.6 mph - N/A   Clear
8:15 PM 70.5 °F - 60.1 °F 69% 30.09 in 10.0 mi NE 5.8 mph - N/A   Clear
8:35 PM 69.1 °F - 60.1 °F 73% 30.10 in 10.0 mi NE 5.8 mph - N/A   Clear
8:55 PM 68.4 °F - 59.5 °F 73% 30.11 in 10.0 mi ENE 5.8 mph - N/A   Clear
9:15 PM 67.8 °F - 59.5 °F 75% 30.11 in 10.0 mi NE 6.9 mph - N/A   Clear
9:35 PM 67.1 °F - 58.6 °F 74% 30.12 in 10.0 mi NE 5.8 mph - N/A   Clear
9:55 PM 65.5 °F - 58.5 °F 78% 30.12 in 10.0 mi NE 6.9 mph - N/A   Clear
10:15 PM 65.5 °F - 58.3 °F 77% 30.12 in 10.0 mi NE 5.8 mph - N/A   Clear
10:35 PM 64.8 °F - 58.5 °F 80% 30.12 in 10.0 mi Calm Calm - N/A   Clear
10:55 PM 65.3 °F - 58.1 °F 77% 30.12 in 10.0 mi Calm Calm - N/A   Clear
11:15 PM 65.7 °F - 57.7 °F 76% 30.13 in 10.0 mi Calm Calm - N/A   Clear
11:35 PM 65.3 °F - 57.9 °F 77% 30.12 in 10.0 mi Calm Calm - N/A   Clear
11:55 PM 65.5 °F - 58.1 °F 77% 30.13 in 10.0 mi Calm Calm - N/A   Clear